Stations météo

Publicité
Orange, France (7579): Température de l'air & dewpoint: 13.10.2017 21:00:00 - 19.10.2017 21:00:00 (CEST)Orange, France (7579): Température de l'air 5cm: 13.10.2017 21:00:00 - 19.10.2017 21:00:00 (CEST)Orange, France (7579): Vitesse du vent & gusts: 13.10.2017 21:00:00 - 19.10.2017 21:00:00 (CEST)Orange, France (7579): Direction du vent: 13.10.2017 21:00:00 - 19.10.2017 21:00:00 (CEST)Orange, France (7579): reduced air pressure: 13.10.2017 21:00:00 - 19.10.2017 21:00:00 (CEST)Orange, France (7579): visibility: 13.10.2017 21:00:00 - 19.10.2017 21:00:00 (CEST)Orange, France (7579): Quantités de précipitations: 13.10.2017 21:00:00 - 19.10.2017 21:00:00 (CEST)
Date & Time tt [°C] td [°C] tt 5cm [°C] ff [km/h] ff [knt] fx [km/h] fx [knt] dd ppp [hPa] vv [km] rr [mm]
19.10.2017 21:00:00 21,2 9,1 19,3 15 8 23 13 S 1013,6 10 0,0
19.10.2017 20:00:00 21,3 9,2 20,0 5 3 19 11 SSW 1013,1 10 0,0
19.10.2017 19:00:00 22,2 8,7 21,3 13 7 31 17 S 1012,3 10 0,0
19.10.2017 18:00:00 23,7 8,1 23,4 16 9 39 21 S 1011,9 10 0,0
19.10.2017 17:00:00 25,0 8,0 26,3 22 12 42 23 SSE 1011,7 10 0,0
19.10.2017 16:00:00 25,7 7,8 27,0 24 13 39 21 SSE 1012,1 10 0,0
19.10.2017 15:00:00 24,6 7,7 26,7 24 13 45 24 S 1012,1 10 0,0
19.10.2017 14:00:00 25,2 7,3 25,2 22 12 37 20 SSE 1012,8 10 0,0
19.10.2017 13:00:00 23,6 7,2 25,0 22 12 40 22 SE 1013,8 10 0,0
19.10.2017 12:00:00 22,9 8,2 22,4 28 15 42 23 SE 1014,0 10 0,0
19.10.2017 11:00:00 21,6 8,5 20,6 24 13 36 20 SE 1014,1 10 0,0
19.10.2017 10:00:00 20,5 8,5 18,4 21 11 29 16 SE 1014,3 10 0,0
19.10.2017 09:00:00 19,6 8,9 10,1 22 12 32 18 SE 1014,4 10 0,0
19.10.2017 08:00:00 12,6 8,9 8,8 0 0 13 7 N 1014,0 9 0,0
19.10.2017 07:00:00 12,5 9,7 9,7 4 2 8 4 - 1014,2 10 0,0
19.10.2017 06:00:00 14,1 10,7 11,7 0 0 5 3 N 1014,5 25 0,0
19.10.2017 05:00:00 13,1 9,9 10,7 2 1 10 5 - 1014,0 10 0,0
19.10.2017 04:00:00 14,7 10,9 12,6 5 3 16 9 N 1014,3 10 0,0
19.10.2017 03:00:00 14,9 10,9 13,6 2 1 12 7 - 1014,7 10 0,0
19.10.2017 02:00:00 17,0 11,5 16,0 8 4 18 10 WSW 1014,8 10 0,0
19.10.2017 01:00:00 17,0 11,7 15,6 8 4 15 8 SW 1015,3 10 0,0
19.10.2017 00:00:00 17,2 11,0 13,8 8 4 14 8 S 1015,4 10 0,0
18.10.2017 23:00:00 17,5 11,5 13,7 8 4 14 8 S 1015,6 10 0,0
18.10.2017 22:00:00 17,3 11,8 14,5 6 3 14 8 ESE 1015,4 27 0,0
18.10.2017 21:00:00 18,8 12,5 16,1 8 4 16 9 SSE 1015,4 10 0,0
18.10.2017 20:00:00 20,2 12,7 19,1 9 5 24 13 S 1015,1 10 0,0
18.10.2017 19:00:00 21,3 12,7 20,4 16 9 32 17 S 1014,3 10 0,0
18.10.2017 18:00:00 22,5 13,0 23,0 18 10 34 18 SSE 1014,2 10 0,0
18.10.2017 17:00:00 23,4 11,8 25,6 22 12 40 21 S 1014,5 10 0,0
18.10.2017 16:00:00 23,9 11,9 24,5 16 9 35 19 SSE 1015,0 10 0,0
18.10.2017 15:00:00 22,4 12,1 25,2 24 13 37 20 SE 1016,0 10 0,0
18.10.2017 14:00:00 22,2 12,2 26,1 24 13 40 22 SE 1016,7 10 0,0
18.10.2017 13:00:00 22,4 10,2 25,8 18 10 42 23 SSE 1017,6 10 0,0
18.10.2017 12:00:00 21,1 9,0 22,7 22 12 36 20 S 1017,9 10 0,0
18.10.2017 11:00:00 17,0 9,4 16,8 9 5 15 8 SE 1018,5 10 0,0
18.10.2017 10:00:00 13,7 10,7 12,1 0 0 6 3 N 1019,1 10 0,0
18.10.2017 09:00:00 11,0 10,2 6,6 0 0 10 6 N 1019,1 10 0,0
18.10.2017 08:00:00 8,6 8,0 5,2 5 3 14 8 - 1018,9 10 0,0
18.10.2017 07:00:00 8,9 8,4 6,2 4 2 8 4 WSW 1019,2 7 0,0
18.10.2017 06:00:00 8,9 8,4 5,6 5 3 10 5 NE 1019,6 6 0,2
18.10.2017 05:00:00 9,5 9,0 5,5 5 3 8 4 W 1020,1 6 0,0
18.10.2017 04:00:00 8,6 8,0 5,9 4 2 9 5 WSW 1020,6 7 0,0
18.10.2017 03:00:00 9,7 9,1 6,3 0 0 7 4 N 1021,2 6 0,0
18.10.2017 02:00:00 10,6 10,0 7,7 5 3 9 5 E 1021,6 7 0,0
18.10.2017 01:00:00 10,9 10,1 7,9 8 4 10 5 ENE 1022,0 6 0,0
18.10.2017 00:00:00 11,2 10,3 8,5 5 3 11 6 E 1022,4 5 0,0
17.10.2017 23:00:00 12,3 10,9 9,4 4 2 9 5 E 1022,7 6 0,0
17.10.2017 22:00:00 14,2 12,2 11,4 4 2 15 8 - 1022,3 7 0,0
17.10.2017 21:00:00 16,8 13,9 14,5 8 4 15 8 SSW 1021,9 10 0,0
17.10.2017 20:00:00 18,1 13,6 16,0 8 4 16 9 SSW 1022,0 10 0,0
17.10.2017 19:00:00 19,8 12,3 18,8 11 6 23 12 S 1021,5 10 0,0
17.10.2017 18:00:00 22,0 11,7 23,5 15 8 28 15 S 1021,4 10 0,0
17.10.2017 17:00:00 23,6 11,0 25,8 15 8 24 13 SSW 1021,8 10 0,0
17.10.2017 16:00:00 23,0 11,4 29,9 11 6 26 14 S 1022,2 10 0,0
17.10.2017 15:00:00 22,4 12,3 29,2 13 7 24 13 S 1022,9 10 0,0
17.10.2017 14:00:00 20,6 13,3 27,3 2 1 10 5 - 1024,1 10 0,0
17.10.2017 13:00:00 17,5 12,8 18,7 4 2 11 6 - 1025,3 7 0,0
17.10.2017 12:00:00 13,4 12,5 15,4 5 3 10 5 - 1026,0 3,0 0,0
17.10.2017 11:00:00 11,8 11,2 14,4 4 2 8 5 - 1026,2 1,3 0,0
17.10.2017 10:00:00 11,3 10,8 11,4 4 2 6 3 - 1026,2 1,3 -
17.10.2017 09:00:00 10,2 9,9 10,2 4 2 7 4 - 1026,2 7 0,0
17.10.2017 08:00:00 10,0 9,7 8,3 0 0 3 2 N 1025,9 0,2 0,0
17.10.2017 07:00:00 9,1 8,6 6,2 0 0 5 3 N 1026,0 5 0,0
17.10.2017 06:00:00 10,1 9,6 4,8 5 3 8 4 N 1026,0 0,3 0,0
17.10.2017 05:00:00 8,0 7,2 5,1 4 2 5 3 N 1026,4 6 0,2
17.10.2017 04:00:00 9,4 8,6 5,8 0 0 14 8 N 1026,8 7 0,0
17.10.2017 03:00:00 9,8 9,0 6,1 11 6 14 8 ENE 1027,1 7 0,0
17.10.2017 02:00:00 9,8 8,9 6,8 5 3 6 3 NNE 1027,6 4,6 0,0
17.10.2017 01:00:00 12,1 11,3 8,1 0 0 10 5 N 1027,5 4,7 0,0
17.10.2017 00:00:00 12,9 11,8 8,8 8 4 11 6 ESE 1027,6 5 0,0
16.10.2017 23:00:00 13,5 12,1 8,7 8 4 10 6 SE 1027,7 6 0,0
16.10.2017 22:00:00 12,9 10,6 9,4 5 3 10 6 E 1027,3 8 0,0
16.10.2017 21:00:00 13,9 9,9 10,3 2 1 8 5 - 1027,1 10 0,0
16.10.2017 20:00:00 16,3 10,6 12,1 4 2 - - S 1026,9 19 -
16.10.2017 19:00:00 19,7 11,2 14,9 0 0 15 8 N 1026,3 10 0,0
16.10.2017 18:00:00 22,7 10,8 22,4 9 5 19 11 SSW 1026,2 10 0,0
16.10.2017 17:00:00 24,1 11,1 27,0 9 5 19 10 SSW 1026,4 10 0,0
16.10.2017 16:00:00 24,1 11,4 30,1 11 6 19 10 SSW 1026,7 10 0,0
16.10.2017 15:00:00 23,8 12,4 31,0 8 4 18 10 SSW 1027,2 10 0,0
16.10.2017 14:00:00 22,8 13,0 30,7 8 4 18 10 SW 1028,2 10 0,0
16.10.2017 13:00:00 21,5 13,4 28,5 8 4 16 9 S 1029,0 10 0,0
16.10.2017 12:00:00 19,9 13,8 23,6 4 2 11 6 - 1029,5 10 0,0
16.10.2017 11:00:00 17,8 12,7 18,6 5 3 9 5 - 1029,7 10 0,0
16.10.2017 10:00:00 15,8 11,0 12,8 0 0 4 2 N 1029,4 10 0,0
16.10.2017 09:00:00 13,3 10,3 11,6 0 0 8 4 N 1029,0 10 0,0
16.10.2017 08:00:00 13,4 11,8 12,1 2 1 4 2 - 1028,3 10 0,0
16.10.2017 07:00:00 13,2 11,6 12,0 0 0 6 4 N 1028,0 10 0,0
16.10.2017 06:00:00 13,8 11,8 12,7 5 3 11 6 - 1027,9 10 0,0
16.10.2017 05:00:00 14,2 11,7 13,9 8 4 12 6 ENE 1027,9 10 0,0
16.10.2017 04:00:00 13,6 11,8 13,0 5 3 13 7 - 1028,3 10 0,0
16.10.2017 03:00:00 12,7 11,9 8,4 0 0 5 3 N 1028,7 10 0,0
16.10.2017 02:00:00 11,5 10,7 8,3 4 2 5 3 ENE 1028,7 10 0,0
16.10.2017 01:00:00 12,1 11,0 8,9 2 1 6 4 ESE 1028,8 8 0,0
16.10.2017 00:00:00 14,1 13,1 9,8 0 0 8 5 N 1029,0 9 0,0
15.10.2017 23:00:00 14,5 12,9 11,1 8 4 10 5 ESE 1028,9 10 0,0
15.10.2017 22:00:00 16,0 13,7 13,2 8 4 10 5 SE 1028,5 10 0,0
15.10.2017 21:00:00 16,4 12,6 13,9 5 3 15 8 ESE 1028,1 10 0,0
15.10.2017 20:00:00 20,2 14,3 18,8 8 4 16 9 SSW 1027,7 10 0,0
15.10.2017 19:00:00 21,4 12,8 19,7 8 4 16 9 SW 1027,2 10 0,0
15.10.2017 18:00:00 24,3 12,6 26,1 9 5 18 10 S 1027,0 10 0,0
15.10.2017 17:00:00 25,0 12,2 28,5 11 6 19 10 SSE 1027,0 10 0,0
15.10.2017 16:00:00 25,1 11,3 33,4 9 5 16 8 SSE 1027,4 10 0,0
15.10.2017 15:00:00 24,8 11,0 33,0 9 5 16 8 SSE 1027,8 10 0,0
15.10.2017 14:00:00 24,4 12,0 31,1 5 3 18 10 SSW 1028,7 10 0,0
15.10.2017 13:00:00 22,8 13,0 29,5 8 4 11 6 SSW 1029,5 10 0,0
15.10.2017 12:00:00 21,0 13,4 24,6 2 1 7 4 - 1029,9 10 0,0
15.10.2017 11:00:00 18,8 13,0 18,7 0 0 6 4 N 1030,2 10 0,0
15.10.2017 10:00:00 14,7 12,4 11,7 2 1 6 3 - 1030,4 6 0,0
15.10.2017 09:00:00 10,2 9,4 6,1 0 0 3 2 N 1030,2 5 0,0
15.10.2017 08:00:00 8,5 7,9 6,0 0 0 8 5 N 1029,8 3,6 0,0
15.10.2017 07:00:00 8,3 7,5 5,9 5 3 7 4 WNW 1029,6 6 0,0
15.10.2017 06:00:00 9,0 8,2 6,4 0 0 7 4 N 1029,4 6 0,0
15.10.2017 05:00:00 9,5 8,7 6,7 4 2 9 5 ENE 1029,2 5 0,0
15.10.2017 04:00:00 9,8 9,0 6,7 8 4 9 5 ENE 1029,2 6 0,0
15.10.2017 03:00:00 10,1 9,2 6,6 0 0 6 3 N 1029,5 6 0,0
15.10.2017 02:00:00 9,7 8,5 7,3 5 3 8 4 NE 1029,3 7 0,0
15.10.2017 01:00:00 10,6 8,9 7,7 0 0 3 2 N 1029,3 6 0,0
15.10.2017 00:00:00 11,4 9,8 8,2 0 0 3 2 N 1028,9 7 0,0
14.10.2017 23:00:00 12,5 10,9 9,3 0 0 7 4 N 1028,7 7 0,0
14.10.2017 22:00:00 12,9 10,4 10,3 5 3 9 5 NE 1028,5 8 0,0
14.10.2017 21:00:00 14,2 11,4 10,6 0 0 3 2 N 1028,4 9 0,0
14.10.2017 20:00:00 16,6 11,5 12,7 2 1 6 4 S 1027,9 10 0,0
14.10.2017 19:00:00 20,1 13,1 17,9 5 3 13 7 S 1027,4 10 0,0
14.10.2017 18:00:00 22,2 13,0 24,3 8 4 19 10 SSW 1027,2 10 0,0
14.10.2017 17:00:00 22,9 13,1 26,4 8 4 18 10 SW 1027,3 10 0,0
14.10.2017 16:00:00 22,5 13,0 29,8 4 2 16 8 - 1027,5 10 0,0
14.10.2017 15:00:00 21,8 12,9 24,6 9 5 17 9 SW 1027,9 10 0,0
14.10.2017 14:00:00 20,5 13,0 22,2 9 5 18 10 WSW 1028,6 9 0,0
14.10.2017 13:00:00 18,9 13,5 21,2 8 4 13 7 S 1029,4 10 0,0
14.10.2017 12:00:00 17,9 13,4 19,4 4 2 9 5 - 1029,6 10 0,0
14.10.2017 11:00:00 17,1 13,4 17,6 4 2 7 4 ESE 1029,5 10 0,0
14.10.2017 10:00:00 16,1 11,3 16,3 5 3 8 4 - 1029,0 10 0,0
14.10.2017 09:00:00 15,9 11,7 15,7 4 2 6 4 NNE 1028,3 10 0,0
14.10.2017 08:00:00 15,9 11,9 15,7 4 2 6 3 N 1027,5 10 0,0
14.10.2017 07:00:00 16,3 13,2 15,9 4 2 5 3 - 1027,3 10 0,0
14.10.2017 06:00:00 16,4 14,2 15,8 0 0 3 2 N 1027,3 7 0,0
14.10.2017 05:00:00 16,3 13,4 15,8 0 0 2 1 N 1027,3 9 0,0
14.10.2017 04:00:00 16,3 13,2 15,9 2 1 7 4 - 1027,3 10 0,0
14.10.2017 03:00:00 16,1 13,2 15,9 5 3 7 4 NE 1027,5 10 0,0
14.10.2017 02:00:00 16,0 14,5 15,7 0 0 3 2 N 1027,6 6 0,0
14.10.2017 01:00:00 15,8 14,7 14,8 0 0 3 1 N 1027,5 6 0,0
14.10.2017 00:00:00 14,6 13,8 11,1 0 0 6 4 N 1027,5 5 0,0
13.10.2017 23:00:00 14,3 13,5 10,2 5 3 7 4 ESE 1027,3 2,9 0,0
13.10.2017 22:00:00 14,6 13,0 11,0 5 3 7 4 ESE 1026,8 6 0,0
13.10.2017 21:00:00 16,6 14,2 12,4 2 1 9 5 - 1026,4 7 0,0

tt = Température de l'air
td = dewpoint
tt 5cm = Température de l'air 5cm
ff = Vitesse du vent
fx = gusts
dd = Direction du vent
ppp = reduced air pressure
vv = visibility
rr = Quantités de précipitations

stations d'obs. à proximité